Погода в Тури

Погода в Тури : погода сейчас, прогноз погоды и архив. Всё, что Вы хотите узнать о погоде в Тури!

Поиск расширенной информации на нашем сайте:

Полезная информация: Аккорды - синяя птица аккорды.

Другие новости

Новости СМИ2

Главная страница сайта

Новости сайта

03.07.2017

Напоминаем, что на нашем специализированном сайте Метеоцентр.Азия вы можете получить высокодетализированные автоматические прогнозы погоды по пунктам России, СНГ и мира в авиационном формате (включающие направление и скорость ветра, видимость, явления погоды, количество и форму облачности, нижнюю и верхнюю границу облачности).

Рекомендуем: Написание Стихов на заказ

Погода в Тури - сегодня

Время (UTC), дата Ветер
(°,м/с) 
Видим.   Явления Облачность Т
(°С)
Тd
(°С)
f(%) Тe
(°С)
Pmin
(гПа)
dP
(гПа)
Po
(мм)
O2
(г/м3)
Тmin Tmax R s Состояние
почвы
09 20.09.18 200 (Ю) 4-9{09}  20000 м    1/1 630 м 
[]
+19.4 +14.5 73 +28  1011.8  -0.6  754  281  +14  +19.5       
12 20.09.18 210 (ЮЗ) 5-10{13}  20000 м    1/1 660 м 
[]
+19.8 +14.7 72 +28  1011.7  0.1  753  280  +14.4  +20.3       
15 20.09.18 220 (ЮЗ) 4{11}  20000 м    ясно 
[]
+19.5 +13.7 69 +26  1011.9  0.2  754  281  +15.1  +20.3       
21 20.09.18 230 (ЮЗ) 4-8{08}  20000 м    4/4 600 м 
[]
+16.1 +13.7 86 +22  1011.7  753  284  +14.9  +20.3       
00 21.09.18 210 (ЮЗ) 2{09}  20000 м    9/9 500 м 
[]
+16.3 +14.4 89 +25  1011.7  753  283  +14.9  +20.3       
03 21.09.18 200 (Ю) 15000 м    5/5 300 м 
[]
+14.5 +13.8 96 +23  1012.3  0.6  754  286  +14.5  +19.5       
09 21.09.18 200 (Ю) 20000 м    ясно 
[]
+19.7 +15.4 76 +30  1011.8  -0.5  754  280  +14.4  +19.7       
12 21.09.18 160 (Ю) 20000 м    4/0 
[]
+22.7 +14.2 59 +30  1009.7  -2.1  752  277  +14.4  +23.1       
15 21.09.18 150 (ЮВ) 20000 м    3/0 2000 м 
[]
+22.8 +15.4 63 +32  1007.2  -2.5  750  276  +14.4  +23.8       
21 21.09.18 160 (Ю) 20000 м    ясно 
[]
+20.4 +13.4 64 +27  1002.8  -2.1  747  277  +19  +23.8       
00 22.09.18 160 (Ю) 20000 м    ясно 
[]
+19.1 +12 63 +24  999.4  -3.4  744  278  +18.9  +23.8       
03 22.09.18 210 (ЮЗ) 20000 м    9/9 960 м 
[]
+18.1 +12.1 68 +22  998.6  -0.8  744  279  +17.7  +23       
06 22.09.18 220 (ЮЗ) 5-10{10}  11000 м  ливневой дождь  10/0 2000 м 
[]
+12.2 +10 86 +12  1000.9  2.3  745  286  +12.2  +21       
09 22.09.18 200 (Ю) 5-9{10}  20000 м  {ливн. осадки}  9/9 870 м 
[]
+14.5 +8.7 68 +14  1001.1  0.2  745  284  +11.4  +20.4  0.2     
12 22.09.18 210 (ЮЗ) 4-9{13}  20000 м  {ливн. осадки}  9/8 1170 м 
[]
+14.8 +7.1 60 +15  1001.7  0.6  746  284  +11.4  +19.1       
15 22.09.18 220 (ЮЗ) 6-13{14}  20000 м    6/6 1170 м 
[]
+13.8 +6.7 62 +13  1002.4  0.7  746  285  +11.4  +18.2       
21 22.09.18 200 (Ю) 20000 м    9/0 
[]
+11.5 +8.3 81 +11  1002.2  -0.6  746  287  +11.1  +16       
00 23.09.18 170 (Ю) 20000 м    ясно 
[]
+9.3 +7.8 90 +9  1001.1  -1.1  745  289  +9.2  +16       
03 23.09.18 160 (Ю) 20000 м  в посл. час дождь со снегом{ливн. осадки}  8/5 120 м 
[]
+8.7 +8.3 97 +9  1000.4  -0.7  745  289  +8.3  +13.8     
09 23.09.18 200 (Ю) 20000 м  ливневой дождь  5/5 630 м 
[]
+10.4 +8.9 90 +10  999.4  -0.3  744  287  +7.1  +11.7       
12 23.09.18 240 (ЮЗ) 4{11}  15000 м  слаб. ливневой дождь со снегом  10/10 570 м 
[]
+9.3 +7.4 88 +8  1000.4  745  289  +7.1  +13.8     
15 23.09.18 200 (Ю) 20000 м  в посл. час дождь со снегом{ливн. осадки}  8/5 1500 м 
[]
+10.8 +9.4 91 +12  1000.2  -0.2  745  287  +7.1  +13.8     
21 23.09.18 200 (Ю) 20000 м  ливневой дождь  9/1 450 м 
[]
+8.3 +8 98 +8  1000.5  0.3  745  290  +8.3  +13.8  0.4     
00 24.09.18 180 (Ю) 20000 м  в посл. час дождь со снегом{ливн. осадки}  9/9 330 м 
[]
+7.8 +7.3 97 +9  1000.7  0.2  745  291  +7.7  +11.6     
03 24.09.18 220 (ЮЗ) 20000 м  {ливн. осадки}  9/6 60 м 
[]
+6.3 +6.2 99 +7  1001.7  746  293  +6  +10.8  0.1     
Время (UTC), дата Ветер
(°,м/с) 
Видим.   Явления Облачность Т
(°С)
Тd
(°С)
f(%) Тe
(°С)
Pmin
(гПа)
dP
(гПа)
Po
(мм)
O2
(г/м3)
Тmin Tmax R s Состояние
почвы

Для получения пояснительной информации подведите курсор к названию столбца.

ПОГОДА в Тури - архив

Всё, что Вы хотите узнать о погоде в Тури - удобно и подробно!

Выберите нужную дату (начиная с 1 января 2015* года) и нажмите кнопку "Найти".
Будут отображены архивные сводки погоды по пункту Тури, начиная с указанной даты.


Отображать данные в формате CSV (для использования в таблицах Excel)


Внимание! Наш архив погоды предназначен исключительно для личного некоммерческого использования в познавательных целях. Если Вам необходимы официальные справки о состоянии погоды (для производственных, юридических, коммерческих и т.п. целей), обращайтесь в органы Росгидромета.

*Примечание: данная дата относится к архиву по метеостанциям СССР (Россия, СНГ, Балтия).
Архив по метеостанциям Зарубежной Европы и Азии (кроме Китая) хранится 10 дней, по другим регионам земного шара (Китай, Африка, Америка, Австралия, Океания) - 1 день.

Тури - район местоположения метеостанции


Название, широта, долгота, высота метеостанции:
Тури 58.8°ш. 25.4°д. 65 м над ур. моря [Эстония]

Дополнительная информация

В oтличие oт бoльшинства пoгoдных сайтoв мы публикуем пoдрoбную метеoинфoрмацию в детальнoм прoфессиoнальнoм фoрмате.

Характеристики температуры и влажнoсти вoздуха измеряются на высoте 2 м в тени вдали oт зданий и деревьев.
Скoрoсть ветра измеряется на высoте 10 м (на урoвне рoста челoвека скoрoсть ветра ниже в 1.5-2 раза). Если метеoстанция нахoдится в гoрoде или в лесу, тo скoрoсть ветра занижена на 2-4 м/с пo сравнению с oткрытым местoм. Скoрoсть ветра над акватoриями крупных рек и oзёр, а также на вершинах хoлмoв на 2-5 м/с выше, чем в oбычных услoвиях.
Атмoсфернoе давление в разных тoчках местнoсти мoжет значительнo oтличаться oт давления на метеoстанции, в зависимoсти oт услoвий рельефа (при пoдъёме на 10 м давление пoнижается примернo на 1 мм рт.ст.).